Enid Vance AFB, OK

7:24 AM CST on December 16, 2017 (GMT -0600)
Vance Air Force Base

Weather History for KEND - October, 2012

Change the Weather History Date:

Sunday, October 28, 2012

  Actual Average Record
Temperature  
Mean Temperature 44 °F -  
Max Temperature 60 °F 64 °F 85 °F (2016)
Min Temperature 30 °F 47 °F 23 °F (2017)
Degree Days  
Heating Degree Days 20    
Moisture  
Dew Point 27 °F    
Average Humidity 52    
Maximum Humidity 76    
Minimum Humidity 29    
Precipitation  
Precipitation 0.00 in - - ()
Sea Level Pressure  
Sea Level Pressure 30.26 in    
Wind  
Wind Speed 6 mph (SE)    
Max Wind Speed 10 mph    
Max Gust Speed -    
Visibility 10 miles    
Events      
Averages and records for this station are not official NWS values.
T = Trace of Precipitation, MM = Missing Value Source: NWS Daily Summary

Daily Weather History Graph

Daily Weather History Graph

Search for Another Location

Airport or City:

Trip Planner

Search our weather history database for the weather conditions in past years. The results will help you decide how hot, cold, wet, or windy it might be!

Date:

Astronomy

Oct. 28, 2012 Rise Set
Actual Time 7:51 AM CDT 6:38 PM CDT
Civil Twilight 7:24 AM CDT 7:05 PM CDT
Nautical Twilight 6:54 AM CDT 7:35 PM CDT
Astronomical Twilight 6:24 AM CDT 8:05 PM CDT
Moon 5:57 PM CDT (10/28) 6:46 AM CDT (10/28)
Length of Visible Light 11h 40m
Length of Day
10h 47m
Waxing Gibbous, 99% of the Moon is Illuminated
Oct 28
Waxing Gibbous
Oct 29
Full
Nov 6
Last Quarter
Nov 13
New
Nov 20
First Quarter

Hourly Weather History & Observations

Time (CDT) Temp. Windchill Dew Point Humidity Pressure Visibility Wind Dir Wind Speed Gust Speed Precip Events Conditions
12:55 AM 34.5 °F - 26.4 °F 72% 30.28 in 10.0 mi Calm Calm - N/A   Clear
1:55 AM 30.9 °F 25.2 °F 24.3 °F 76% 30.28 in 10.0 mi ENE 5.8 mph - N/A   Clear
2:55 AM 35.4 °F 29.7 °F 23.4 °F 62% 30.27 in 10.0 mi East 6.9 mph - N/A   Clear
3:55 AM 34.3 °F 28.4 °F 24.1 °F 66% 30.27 in 10.0 mi East 6.9 mph - N/A   Clear
4:55 AM 34.5 °F 29.4 °F 23.7 °F 65% 30.28 in 10.0 mi ESE 5.8 mph - N/A   Clear
5:55 AM 31.3 °F 25.6 °F 23.4 °F 72% 30.30 in 10.0 mi East 5.8 mph - N/A   Clear
6:55 AM 32.2 °F 26.7 °F 24.1 °F 72% 30.30 in 10.0 mi East 5.8 mph - N/A   Clear
7:55 AM 32.0 °F 26.4 °F 25.0 °F 75% 30.31 in 10.0 mi ESE 5.8 mph - N/A   Clear
8:55 AM 37.2 °F 32.6 °F 29.3 °F 73% 30.32 in 10.0 mi SE 5.8 mph - N/A   Clear
9:55 AM 42.4 °F 37.0 °F 29.1 °F 59% 30.33 in 10.0 mi SSE 9.2 mph - N/A   Clear
10:55 AM 47.3 °F - 28.8 °F 49% 30.32 in 10.0 mi SSE 6.9 mph - N/A   Clear
11:55 AM 51.3 °F - 28.2 °F 41% 30.32 in 10.0 mi SE 6.9 mph - N/A   Clear
12:55 PM 55.4 °F - 26.6 °F 33% 30.29 in 10.0 mi SSE 6.9 mph - N/A   Partly Cloudy
1:55 PM 57.2 °F - 26.6 °F 31% 30.24 in 10.0 mi SE 8.1 mph - N/A   Scattered Clouds
2:55 PM 59.0 °F - 26.6 °F 29% 30.21 in 10.0 mi SSE 8.1 mph - N/A   Scattered Clouds
3:55 PM 59.0 °F - 26.6 °F 29% 30.20 in 10.0 mi SE 8.1 mph - N/A   Scattered Clouds
4:55 PM 59.0 °F - 26.6 °F 29% 30.20 in 10.0 mi SE 9.2 mph - N/A   Scattered Clouds
5:55 PM 56.5 °F - 27.1 °F 32% 30.20 in 10.0 mi SE 9.2 mph - N/A   Clear
6:55 PM 53.4 °F - 27.9 °F 37% 30.20 in 10.0 mi SE 8.1 mph - N/A   Clear
7:55 PM 50.5 °F - 27.5 °F 41% 30.21 in 10.0 mi SE 9.2 mph - N/A   Clear
8:55 PM 47.8 °F - 27.7 °F 46% 30.21 in 10.0 mi SE 9.2 mph - N/A   Partly Cloudy
9:55 PM 46.2 °F 41.7 °F 28.4 °F 50% 30.22 in 10.0 mi ESE 9.2 mph - N/A   Clear
10:55 PM 44.1 °F 39.0 °F 28.6 °F 55% 30.24 in 10.0 mi ESE 9.2 mph - N/A   Clear
11:55 PM 44.2 °F 38.8 °F 28.8 °F 55% 30.24 in 10.0 mi SE 10.4 mph - N/A   Clear